Denver Centennial, CO

3:37 PM MDT on April 20, 2018 (GMT -0600)
Centennial

Weather History for KAPA - February, 2014

Change the Weather History Date:

Monday, February 24, 2014

  Actual Average Record
Temperature  
Mean Temperature 42 °F -  
Max Temperature 64 °F 42 °F 64 °F (2009)
Min Temperature 20 °F 20 °F -4 °F (2003)
Degree Days  
Heating Degree Days 23    
Month to date heating degree days 863  
Moisture  
Dew Point 17 °F    
Average Humidity 51    
Maximum Humidity 92    
Minimum Humidity 10    
Precipitation  
Precipitation 0.00 in - - ()
Month to date precipitation 0.09  
Year to date precipitation 0.85  
Sea Level Pressure  
Sea Level Pressure 29.99 in    
Wind  
Wind Speed 6 mph (East)    
Max Wind Speed 28 mph    
Max Gust Speed 42 mph    
Visibility 8 miles    
Events Fog    
Averages and records for this station are not official NWS values.
T = Trace of Precipitation, MM = Missing Value Source: NWS Daily Summary

Daily Weather History Graph

Daily Weather History Graph

Search for Another Location

Airport or City:

Astronomy

Feb. 24, 2014 Rise Set
Actual Time 6:39 AM MST 5:46 PM MST
Civil Twilight 6:12 AM MST 6:13 PM MST
Nautical Twilight 5:41 AM MST 6:44 PM MST
Astronomical Twilight 5:10 AM MST 7:15 PM MST
Moon 2:39 AM MST (2/24) 12:50 PM MST (2/24)
Length of Visible Light 12h 01m
Length of Day
11h 06m
Waning Crescent, 27% of the Moon is Illuminated
Feb 24
Waning Crescent
Mar 1
New
Mar 8
First Quarter
Mar 16
Full
Mar 23
Last Quarter

Hourly Weather History & Observations

Time (MST) Temp. Windchill Dew Point Humidity Pressure Visibility Wind Dir Wind Speed Gust Speed Precip Events Conditions
12:53 AM 26.1 °F - 24.1 °F 92% 29.97 in 5.0 mi Calm Calm - N/A   Scattered Clouds
1:25 AM 25.0 °F 17.1 °F 24.1 °F 96% 29.92 in 0.5 mi ESE 6.9 mph - N/A Fog Light Freezing Fog
1:35 AM 27.0 °F 20.5 °F 25.0 °F 92% 29.90 in 0.5 mi SSE 5.8 mph - N/A Fog Light Freezing Fog
1:53 AM 26.1 °F - 24.1 °F 92% 29.93 in 0.5 mi Calm Calm - N/A Fog Light Freezing Fog
2:53 AM 24.1 °F 19.7 °F 21.9 °F 91% 29.92 in 0.5 mi Variable 3.5 mph - N/A Fog Light Freezing Fog
3:05 AM 25.0 °F - 21.9 °F 88% 29.88 in 0.5 mi Calm Calm - N/A Fog Light Freezing Fog
3:13 AM 25.0 °F - 21.9 °F 88% 29.89 in 5.0 mi Calm Calm - N/A   Mostly Cloudy
3:53 AM 25.0 °F - 21.0 °F 85% 29.92 in 6.0 mi Calm Calm - N/A   Scattered Clouds
4:53 AM 30.0 °F 26.5 °F 17.1 °F 59% 29.91 in 10.0 mi South 3.5 mph - N/A   Partly Cloudy
5:53 AM 30.9 °F 24.3 °F 16.0 °F 54% 29.91 in 10.0 mi South 6.9 mph - N/A   Partly Cloudy
6:53 AM 32.0 °F 24.8 °F 15.1 °F 50% 29.95 in 10.0 mi South 8.1 mph - N/A   Scattered Clouds
7:53 AM 41.0 °F 37.1 °F 19.9 °F 43% 29.94 in 10.0 mi SSW 5.8 mph - N/A   Mostly Cloudy
8:53 AM 46.9 °F - 17.1 °F 30% 29.93 in 10.0 mi Calm Calm - N/A   Scattered Clouds
9:53 AM 54.0 °F - 10.0 °F 17% 29.91 in 10.0 mi West 10.4 mph - N/A   Scattered Clouds
10:53 AM 55.9 °F - 8.1 °F 15% 29.89 in 10.0 mi SSW 3.5 mph - N/A   Scattered Clouds
11:53 AM 59.0 °F - 9.0 °F 14% 29.87 in 10.0 mi Variable 3.5 mph - N/A   Scattered Clouds
12:53 PM 60.1 °F - 8.1 °F 13% 29.86 in 10.0 mi NNW 11.5 mph - N/A   Scattered Clouds
1:53 PM 62.1 °F - 8.1 °F 12% 29.84 in 10.0 mi NW 19.6 mph 29.9 mph N/A   Mostly Cloudy
2:53 PM 63.0 °F - 6.1 °F 11% 29.85 in 10.0 mi NW 21.9 mph 29.9 mph N/A   Mostly Cloudy
3:53 PM 61.0 °F - 5.0 °F 11% 29.88 in 10.0 mi NNW 15.0 mph - N/A   Scattered Clouds
4:35 PM 43.0 °F 34.0 °F 27.0 °F 53% 29.96 in 10.0 mi NE 21.9 mph 42.6 mph N/A   Scattered Clouds
4:45 PM 37.9 °F 27.9 °F 26.1 °F 62% 29.97 in 10.0 mi NE 19.6 mph 32.2 mph N/A   Scattered Clouds
4:53 PM 35.1 °F 24.8 °F 25.0 °F 67% 30.05 in 10.0 mi NE 17.3 mph 28.8 mph N/A   Scattered Clouds
5:35 PM 27.0 °F 14.7 °F 19.9 °F 75% 30.11 in 10.0 mi NNE 16.1 mph 24.2 mph N/A   Mostly Cloudy
5:53 PM 25.0 °F 14.2 °F 19.0 °F 78% 30.26 in 10.0 mi NE 11.5 mph - N/A   Overcast
6:53 PM 23.0 °F 13.9 °F 18.0 °F 81% 30.30 in 9.0 mi East 8.1 mph - N/A   Overcast
7:53 PM 21.0 °F 9.9 °F 17.1 °F 85% 30.28 in 8.0 mi East 10.4 mph - N/A   Overcast
8:53 PM 21.0 °F 14.6 °F 17.1 °F 85% 30.26 in 8.0 mi East 4.6 mph - N/A   Overcast
9:53 PM 21.0 °F 13.4 °F 16.0 °F 81% 30.21 in 9.0 mi ESE 5.8 mph - N/A   Overcast
10:53 PM 21.0 °F 12.4 °F 15.1 °F 78% 30.18 in 9.0 mi East 6.9 mph - N/A   Overcast
11:53 PM 21.9 °F 12.5 °F 17.1 °F 82% 30.14 in 9.0 mi SE 8.1 mph - N/A   Overcast